054  
ASUS41 KAKQ 222215  
RWRAKQ  
 
REGIONAL WEATHER ROUNDUP  
NATIONAL WEATHER SERVICE WAKEFIELD VA  
500 PM EST FRI FEB 22 2019  
 
NOTE: "FAIR" INDICATES FEW OR NO CLOUDS BELOW 12,000 FEET WITH NO  
SIGNIFICANT WEATHER AND/OR S TO VISIBILITY
. * = DENOTES  
STATION MAY NOT REPORT PRECIPITATION (E.G., RAIN,SNOW,ETC.),
 
THUNDER OR FOG.  
 
VAZ042-051-052>054-056-222300-  
NORTHERN VIRGINIA  
 
CITY SKY/WX TMP DP RH WIND PRES REMARKS
 
WASH NATIONAL CLOUDY 48 28 46 NW8 30.39S  
DULLES CLOUDY 44 26 49 N7 30.39S  
FORT BELVOIR FAIR 47 27 45 NW5 30.38S  
QUANTICO CLOUDY 48 29 47 N6 30.39F  
FREDERICKSBRG* MOCLDY 48 32 53 NE3 30.38R  
STAFFORD* FAIR 47 32 56 NW3 30.43R  
WARRENTON FAIR 46 29 49 N5 30.38R  
CULPEPER* FAIR 46 30 52 NE3 30.40R  
MANASSAS* FAIR 45 31 58 N5 30.40R  
LEESBURG* FAIR 45 32 61 N5 30.40R  
WINCHESTER FAIR 41 30 65 CALM 30.39R  
FRONT ROYAL* FAIR 41 28 60 E8 30.37R  
LURAY* FAIR 43 32 65 CALM 30.36R  

 
 
VAZ048-049-060>072-079>083-222300-  
CENTRAL AND SOUTH CENTRAL VIRGINIA  
 
CITY SKY/WX TMP DP RH WIND PRES REMARKS
 
RICHMOND CLOUDY 47 40 76 S3 30.39R  
CHESTERFIELD* LGT RAIN 46 40 79 CALM 30.39R  
PETERSBURG* LGT RAIN 46 37 72 CALM 30.39R  
HANOVER MOCLDY 48 36 63 SE3 30.39R  
TAPPAHANNOCK* FAIR 47 36 66 CALM 30.38S  
QUINTON* CLOUDY 46 38 72 CALM 30.39R  
CHARLOTTSVILLE CLOUDY 47 36 65 CALM 30.37R  
GORDONSVILLE* CLOUDY 46 34 64 CALM 30.38R  
ORANGE* CLOUDY 45 32 61 CALM 30.38R  
LOUISA* CLOUDY 45 38 77 CALM 30.42R  
BUMPASS* CLOUDY 47 34 59 CALM 30.38R  
FARMVILLE* DRIZZLE 44 42 95 CALM 30.36F  
CREWE* CLOUDY 42 41 95 CALM 30.37F  
FORT PICKETT* CLOUDY 43 43 100 E3 30.37S  
CHASE CITY* CLOUDY 43 43 100 MISG 30.37S  
CLARKSVILLE* CLOUDY 45 45 100 N3 30.37S  
SOUTH HILL* CLOUDY 44 44 99 N5 30.42S  
LAWRENCEVILLE* CLOUDY 45 42 91 CALM 30.38R  
EMPORIA* N/A N/A N/A N/A N3 N/A  

 
 
VAZ088>098-222300-  
SOUTHEAST VIRGINIA  
 
CITY SKY/WX TMP DP RH WIND PRES REMARKS
 
NORFOLK CLOUDY 45 39 79 N7 30.36F  
VIRGINIA BEACH CLOUDY 45 34 65 NE9 30.36F  
NORFOLK NAVAL CLOUDY 44 37 76 NE6 30.38F  
WEST POINT* MOCLDY 46 35 65 CALM 30.40R  
SALUDA* FAIR 45 37 73 CALM 30.38S  
NEWPORT NEWS CLOUDY 45 35 68 NE3 30.38S  
LANGLEY AFB CLOUDY 45 36 72 NE6 30.36S  
FORT EUSTIS CLOUDY 46 34 62 NE3 30.36S  
WILLIAMSBURG* CLOUDY 45 39 81 CALM 30.39R  
HR EXEC AP* CLOUDY 45 36 70 NE3 30.38S  
FRANKLIN* CLOUDY 45 39 79 CALM 30.39R  
US460-WAKEFLD LGT RAIN 46 37 71 CALM 30.38S  

 
 
VAZ020-022-025-037-045-222300-  
WEST CENTRAL AND SOUTHWEST VIRGINIA  
 
CITY SKY/WX TMP DP RH WIND PRES REMARKS
 
STAUNTON* CLOUDY 44 37 78 CALM 30.37R  
WAYNESBORO* CLOUDY 43 39 85 CALM 30.34R  
HOT SPRINGS VA SNOW 40 40 100 CALM 30.31R VSB<1/4  
LYNCHBURG LGT RAIN 42 40 92 SE3 30.37R  
DANVILLE LGT RAIN 45 43 93 NE5 30.37F  
SOUTH BOSTON* CLOUDY 45 43 95 NE3 30.38R  
MARTINSVILLE RAIN 44 44 98 CALM 30.40R  
ROANOKE RAIN 44 42 93 SE7 30.38R FOG  
BLACKSBURG RAIN 43 43 100 E6 30.34F  
DUBLIN* LGT RAIN 45 45 100 E3 30.33F  
MARION* CLOUDY 46 46 100 NE9 30.31F  
HILLSVILLE* CLOUDY 44 43 96 E6 30.28F  
RICHLANDS* RAIN 44 43 95 CALM 30.26F  
WISE* DRIZZLE 45 45 100 SE3 30.27F  
ABINGDON* CLOUDY 47 46 95 E8 30.27R  

 
 
MDZ021>025-VAZ099-100-222300-  
SOUTHERN MARYLAND AND THE DELMARVA PENINSULA  
 
CITY SKY/WX TMP DP RH WIND PRES REMARKS
 
PATUXENT RIVER CLOUDY 46 30 53 N5 30.37F  
BAY BRIDGE APT FAIR 45 27 49 CALM 30.38F  
LEONARDTOWN FAIR 43 30 61 CALM 30.39F  
DOVER FAIR 45 27 50 NW6 30.38S  
GEORGETOWN FAIR 48 32 53 NE6 30.38S  
EASTON MOCLDY 46 27 46 NW3 30.42F  
CAMBRIDGE CLEAR 46 27 46 MISG 30.38F  
SALISBURY FAIR 48 34 58 N5 30.37F  
TANGIER CLOUDY 45 39 81 N6 30.37F  
OCEAN CITY FAIR 42 32 67 NE5 30.38S  
WALLOPS ISLAND CLOUDY 44 36 73 E7 30.39R  
ACCOMACK* FAIR 45 38 78 E3 30.37S  

 
 
NCZ012>017-030>032-222300-  
NORTH CENTRAL AND EASTERN NORTH CAROLINA  
 
CITY SKY/WX TMP DP RH WIND PRES REMARKS
 
ROANOKE RAPIDS RAIN 43 43 100 CALM 30.37R  
RALEIGH LGT RAIN 45 41 86 NE8 30.37R  
ELIZABETH CITY CLOUDY 47 38 71 NE9 30.35F  
AHOSKIE* LGT RAIN 44 41 89 N3 30.38R  
EDENTON* RAIN 47 43 88 CALM 30.37R  
CURRITUCK* CLOUDY 44 39 82 MISG 30.36S  
KILL DEVIL HLS LGT RAIN 44 42 92 N3 30.33S  
MANTEO DRIZZLE 45 41 88 NE9 30.35S  
CAPE HATTERAS CLOUDY 52 46 80 NE13G23 30.30S  
TARBORO* CLOUDY 45 43 93 NE3 30.37R  
GOLDSBORO CLOUDY 45 42 91 NE8 30.33R  
WASHINGTON DRIZZLE 43 40 89 NE6 30.36R  
GREENVILLE DRIZZLE 43 43 100 NE5 30.36S  
NEW BERN CLOUDY 45 44 97 NE12 30.34R FOG  
WILMINGTON CLOUDY 53 45 74 NE14 30.29R  

 
 
VAZ048-222300-  
ELSEWHERE  
 
CITY SKY/WX TMP DP RH WIND PRES REMARKS
 
HARRISBURG PA CLOUDY 43 24 47 N5 30.38R  
BALTIMORE CLOUDY 46 26 45 VRB3 30.37F  
ANNAPOLIS FAIR 46 28 49 E3 30.38F  
ANDREWS AFB FAIR 46 29 53 CALM 30.37S  
PHILADELPHIA CLOUDY 45 24 43 N7 30.38S  
HENDERSON NC LGT RAIN 42 40 93 CALM 30.37R  
GREENSBORO LGT RAIN 45 44 97 NE9 30.33R FOG  
ROCKY MOUNT LGT RAIN 44 43 96 N7 30.37R FOG  

 
 
VAZ100-222300-  
MARINE  
 
STATION/POSITION TIME TEMP WIND PRES WAVE SWELL
 
AIR SEA DIR/SP/G HT/PER HT/PER  
(UTC) (F) (DEG/KT/KT) (MB) (FT/S) (FT/S)  
BRANDYWINE LGT 2142 1029.2S  
CAPE MAY NJ 2148 42 40 340/ 4/ 8 1028.4F  
LEWES DE 2142 42 40 10/ 4/ 5 1029.0R  
15NM E FENWICK I 2150 43 1029.3S 2/ 7  
OCEAN-CITY-INLET 2142 42 42 90/ 3/ 4 1029.4F  
WACHAPREAGUE VA 2142 43 46 50/ 5/ 7 1028.1F  
THOMAS POINT MD 2200 43 38 60/ 3/ 4 1029.6F  
COVE POINT MD 2142 42 360/ 4/ 5 N/A  
SOLOMONS ISLAND 2142 45 40 20/ 4/ 5 1028.5F  
BISHOPS HEAD MD 2142 46 43 340/ 4/ 6 1028.9F  
PINEY POINT MD 2142 70/ 4/ 6 N/A  
POTOMAC MD 2124 43 40 10/ 6/ 6 1029.6  
CAMBRIDGE MD 2142 45 42 1028.9R  
LEWISETTA VA 2142 44 41 40/ 4/ 5 1028.4F  
RAPPAHANNOCK LGT 2142 350/ 9/ 10 1029.2F  
YORK RVR RNG VA 2142 45 50/ 6/ 7 1029.0F  
YORKTOWN VA 2142 45 45 50/ 4/ 5 1028.2F  
DOMINION TERM VA 2142 45 60/ 5/ 6 1028.7F  
KIPTOPEKE VA 2142 44 10/ 3/ 4 N/A  
CAPE HENRY VA 2142 43 350/ 7/ 8 1026.9F  
WILLOUBY STN VA 2142 44 40/ 7/ 8 1027.8F  
S CRANEY ISL VA 2142 45 50/ 6/ 7 1028.2F  
CAPE HENRY BUOY 2200 44 N/A 2/ 8  
1ST LANDING BUOY 2130 42 20/ 8/ 8 1028.7R  
64NM E OF VA BCH 2150 49 50 20/ 12/ 14 1027.9R 3/ 5 2/ 8  
DUCK PIER NC 2142 45 45 20/ 14/ 16 1027.1S  
44100 DUCK FRF 2145 45 N/A 3/ 6  
44056 DUCK FRF 2200 45 N/A 3/ 5  
OREGON INLET NC 2142 46 49 10/ 8/ 11 1027.2R  
HATTERAS NC 2142 47 55 40/ 11/ 19 1025.8R  
CAPE LOOKOUT NC 2100 20/ 25/ 28 1025.4S  

 
 
 
CLICK HERE TO GO TO PREVIOUS BULLETINS.

The Nexlab VA Page
The Nexlab NC Page
The Nexlab MD Page Main Text Page